GFSNE_prec_cloud_132.txt.gz
Cloud_Cover
100 100 100 100 100 100 100 74 5 67 14 86 6 89 54 69 86 98 100 100 100 100 100 6 5 5 22 42 100 98 100 98 97 100 100 100 100 99
100 100 100 100 100 100 100 97 61 100 85 48 98 96 100 100 100 88 99 100 100 95 65 17 98 57 10 44 100 100 100 100 100 100 100 100 100 100
100 100 100 100 100 100 100 100 100 98 100 100 98 100 100 100 100 100 100 100 99 95 100 91 57 84 100 62 98 100 100 100 100 100 100 100 98 89
100 100 100 100 100 100 100 100 93 100 100 100 100 100 100 100 100 100 100 96 99 100 94 92 79 42 97 99 100 100 100 100 100 100 100 100 95 100
100 100 100 100 100 100 100 100 100 100 100 100 100 100 100 83 100 100 100 100 68 86 100 100 98 88 56 100 100 100 100 100 100 100 100 100 100 96
100 100 100 100 100 100 100 100 100 100 100 100 100 100 100 100 100 100 100 92 100 100 100 96 96 94 100 100 100 100 100 100 100 100 100 100 100 100
100 100 100 100 100 100 100 100 100 100 100 100 100 100 100 100 100 100 100 100 100 100 100 100 100 100 100 100 100 100 100 100 100 100 100 100 100 100
100 100 100 100 100 100 100 100 100 100 99 100 100 100 100 100 100 100 100 100 100 100 100 100 98 100 100 100 100 100 100 100 100 100 100 100 100 100
100 100 100 100 100 100 100 100 100 100 100 100 100 100 100 100 100 100 100 100 100 100 100 100 100 100 100 100 100 100 100 100 100 100 100 100 100 100
100 100 100 100 100 100 100 100 100 97 100 100 100 100 100 100 100 100 100 100 100 100 100 100 100 100 100 100 100 100 100 95 100 100 100 100 100 100
100 100 100 100 100 100 100 100 100 100 92 88 94 90 100 99 100 98 100 100 100 100 100 100 100 100 100 100 100 100 100 100 100 100 100 100 100 100
100 100 100 100 100 100 100 100 100 100 100 84 13 58 68 51 83 97 100 100 100 100 100 100 100 100 100 100 100 100 100 100 100 100 100 100 100 100
100 100 100 100 100 100 80 100 100 100 100 100 100 100 97 100 100 100 70 100 100 100 100 100 100 100 100 100 100 100 100 100 100 100 100 100 100 100
100 100 100 100 100 100 100 100 100 100 100 100 100 100 100 100 100 100 100 97 80 99 98 100 100 100 100 100 100 100 100 100 100 100 100 100 100 100
100 100 100 100 100 100 100 100 100 98 100 100 100 83 82 96 82 54 100 50 54 53 71 96 89 100 100 100 100 100 100 100 100 100 100 100 100 100
99 100 100 97 72 81 90 100 100 100 95 90 86 75 59 50 56 71 94 41 60 15 9 78 77 86 98 99 100 100 100 100 100 100 100 100 100 100
78 26 8 19 72 86 40 7 56 72 98 99 72 62 72 73 15 59 57 69 81 87 48 64 77 65 88 73 92 100 100 100 100 100 100 100 100 100
96 90 72 95 100 100 100 100 100 100 100 100 100 100 98 38 5 11 62 79 98 85 89 75 76 47 56 51 86 96 95 100 100 100 100 100 100 100
80 99 90 91 100 100 100 100 100 100 98 100 100 100 100 80 5 5 28 72 72 66 67 74 37 26 74 89 89 96 76 92 100 100 100 100 100 100
5 84 100 90 98 100 100 100 100 97 84 100 99 100 100 100 60 21 50 80 86 87 61 68 61 37 86 90 98 99 100 84 84 95 100 100 100 100
65 44 71 67 83 100 100 76 95 91 83 97 95 100 100 100 85 45 96 8 17 5 89 98 96 82 79 97 98 100 100 100 90 98 100 100 100 100
62 70 82 73 77 85 93 78 5 5 5 58 100 100 100 100 100 94 80 100 16 12 40 73 100 100 100 100 100 100 100 100 100 100 100 100 100 100
40 66 67 61 45 83 59 28 26 71 6 70 89 100 100 100 100 97 90 95 100 69 9 20 54 85 92 100 100 100 100 100 100 100 100 100 100 100

GFSNE_prec_cloud_135.txt.gz
Cloud_Cover
100 100 100 100 100 100 100 100 100 100 100 100 33 24 42 8 35 68 100 94 100 100 72 54 90 71 41 93 100 100 100 100 99 93 100 100 98 100
100 100 100 100 100 100 100 100 100 100 100 100 83 5 9 22 38 100 61 85 100 100 100 100 93 32 24 29 95 100 100 100 100 98 100 100 97 97
100 100 100 100 100 100 100 100 100 100 100 100 98 27 40 29 81 97 94 100 100 100 100 100 95 100 86 74 36 47 90 100 100 100 100 100 100 94
100 100 100 100 100 100 100 100 100 100 100 100 100 100 99 96 100 100 100 100 100 100 100 100 97 91 71 100 86 88 58 74 100 100 100 100 100 100
100 100 100 100 100 100 100 100 100 100 100 100 100 100 100 100 100 100 100 100 100 100 100 100 100 100 94 77 82 97 94 100 100 100 100 100 100 100
100 100 100 100 100 100 100 100 100 100 100 100 100 100 100 100 100 100 100 100 100 100 100 100 100 100 100 100 100 96 97 100 100 100 100 100 100 100
100 100 100 100 100 100 100 100 100 100 100 100 100 100 100 100 100 100 100 100 100 100 100 100 100 100 100 100 100 100 100 100 100 100 100 100 100 100
100 100 100 100 100 100 100 100 100 100 100 100 100 100 100 100 100 100 100 100 100 100 100 100 100 100 100 100 100 100 100 100 100 100 100 100 100 100
100 100 100 100 100 100 100 100 100 100 100 100 100 100 100 100 100 100 100 100 100 100 100 100 100 100 100 100 100 100 100 100 100 100 100 100 100 100
100 100 100 100 100 100 100 100 100 100 100 100 100 100 100 100 98 100 100 100 100 100 100 100 100 100 100 100 100 100 100 100 100 100 100 100 100 100
100 100 100 100 100 100 100 100 100 100 100 100 100 100 100 100 100 85 100 100 99 100 100 100 100 100 100 100 100 100 100 100 100 100 100 100 100 100
100 100 100 100 100 100 100 100 100 100 100 100 100 100 100 100 100 100 100 100 100 100 100 100 100 100 100 100 100 100 100 100 100 100 100 100 100 100
100 100 100 100 100 100 100 100 100 100 100 100 100 100 100 100 100 92 99 100 100 87 72 98 100 100 100 100 100 100 100 100 100 100 100 100 100 100
100 100 100 100 100 100 100 100 100 100 100 100 100 100 100 100 96 100 99 100 100 100 89 100 100 100 100 100 100 100 100 100 100 100 100 100 100 100
100 100 100 100 100 100 100 100 100 100 100 100 100 100 100 100 100 100 100 100 100 100 100 100 100 99 100 100 100 100 100 100 100 100 100 100 100 100
100 100 100 100 100 92 100 100 100 100 100 100 100 100 100 65 97 96 95 97 100 100 92 78 96 85 79 80 97 100 100 100 100 100 100 100 100 100
92 75 76 78 100 100 100 100 100 96 100 100 100 100 100 100 100 100 100 78 92 96 83 7 79 83 93 97 78 81 89 97 98 88 99 100 98 93
95 88 76 93 100 100 100 100 98 100 100 100 100 100 100 100 99 21 29 65 93 89 91 68 72 66 87 82 93 86 78 88 99 100 100 97 97 97
7 74 100 81 91 98 100 99 100 98 59 59 100 100 100 100 100 58 5 5 5 40 92 93 95 88 97 100 96 100 100 96 87 94 98 100 100 100
43 78 100 69 8 30 100 66 70 5 5 5 70 100 100 100 100 100 35 28 5 5 5 68 100 100 100 100 100 98 100 100 99 91 98 98 100 100
53 40 83 77 56 32 100 20 40 5 6 28 40 90 100 100 96 100 86 41 83 8 5 20 89 98 100 100 100 100 100 100 100 100 98 94 94 100
38 28 60 67 38 54 100 89 31 41 5 6 5 53 97 100 100 100 83 70 38 92 42 5 13 97 100 100 100 100 100 100 100 100 100 100 100 100
59 16 54 28 5 26 53 28 23 75 5 5 41 77 100 98 100 100 99 68 63 59 86 57 18 85 83 100 100 100 100 100 100 100 100 100 100 100

GFSNE_prec_cloud_138.txt.gz
Cloud_Cover
100 100 100 100 100 100 100 100 100 100 100 100 100 92 37 63 41 78 100 100 100 100 100 100 63 92 100 99 100 100 99 100 100 100 100 36 8 31
100 100 100 100 100 100 100 100 100 100 100 100 100 98 17 56 38 50 44 100 100 100 100 100 100 98 86 100 81 92 100 81 100 100 100 78 100 100
100 100 100 100 100 100 100 100 100 100 100 100 100 100 37 11 46 94 62 100 100 100 100 100 100 100 100 84 97 100 82 22 64 100 100 100 100 83
100 100 100 100 100 100 100 100 100 100 100 100 100 100 100 42 74 18 100 99 98 94 100 100 100 100 100 100 100 100 100 100 97 80 100 100 100 100
100 100 100 100 100 100 100 100 100 100 100 100 100 100 100 94 51 100 95 100 100 100 100 100 100 100 100 100 100 100 100 100 100 100 100 100 100 100
100 100 100 100 100 100 100 100 100 100 100 100 100 100 100 100 100 100 88 94 100 98 100 100 100 100 100 100 100 100 100 100 100 100 100 100 100 100
100 100 100 100 100 100 100 100 100 100 100 100 100 100 100 100 100 100 100 100 100 100 100 100 100 100 100 100 100 100 100 100 100 100 100 100 100 100
100 100 100 100 100 100 100 100 100 100 100 100 100 100 100 100 100 100 100 100 100 100 100 100 100 100 100 100 100 100 100 100 100 100 100 100 100 100
100 100 100 100 100 100 100 100 100 100 100 100 100 100 100 100 100 100 100 100 100 100 100 99 92 86 100 100 100 100 100 100 100 100 100 100 100 100
100 100 100 100 100 100 100 100 100 100 100 100 100 100 100 100 100 100 100 100 100 100 100 100 100 100 95 100 100 100 100 100 100 100 100 100 100 100
100 100 100 100 100 100 100 100 100 100 100 100 100 100 100 100 100 100 100 100 100 100 99 100 99 100 100 88 100 100 100 100 100 100 100 100 100 100
100 100 100 100 100 100 100 100 100 100 100 100 100 100 100 100 100 100 100 100 100 100 100 63 90 98 100 59 49 96 100 100 100 100 100 100 100 99
100 100 100 100 100 100 100 100 100 100 100 100 100 100 100 100 100 100 100 100 100 100 100 100 100 100 100 94 51 27 50 56 54 66 89 99 100 100
100 100 100 100 100 100 100 100 100 100 100 100 100 100 100 100 100 100 100 100 100 100 100 100 100 100 100 100 99 53 35 69 57 55 48 37 90 100
100 100 100 100 100 100 100 100 100 100 100 100 100 100 100 100 100 100 100 100 100 100 100 100 100 100 100 100 100 100 86 16 44 98 42 100 100 100
100 100 100 100 100 100 100 100 100 100 100 100 100 100 100 100 100 100 100 100 100 100 100 100 100 100 100 100 100 98 100 100 100 100 68 100 100 98
100 100 100 100 100 100 100 100 97 100 100 100 100 100 100 100 100 100 100 100 100 100 100 100 100 76 70 79 86 89 100 96 98 96 80 91 87 94
100 100 100 100 100 100 100 91 72 55 100 100 97 98 100 100 100 100 100 100 100 100 100 100 100 98 92 95 100 97 39 88 99 96 87 84 100 100
100 100 100 56 42 55 100 88 80 11 85 100 100 100 100 100 100 100 100 73 6 82 10 5 82 100 100 100 100 100 100 93 90 97 94 100 95 86
100 100 100 100 100 65 9 5 93 43 8 5 53 62 100 100 100 100 100 100 85 69 26 13 93 100 100 100 98 88 100 100 100 100 100 100 98 98
5 14 42 94 82 12 89 25 9 5 5 5 5 15 79 100 100 100 100 65 30 11 5 5 26 68 100 100 100 85 86 100 100 100 100 100 100 100
59 31 5 8 5 5 47 96 5 5 5 5 6 82 98 100 100 100 100 100 96 57 6 5 49 34 100 100 100 100 100 100 100 100 100 100 100 100
85 70 7 5 5 5 5 5 6 33 5 5 57 98 99 100 100 100 100 100 98 12 5 17 37 94 100 100 100 100 100 100 100 100 100 100 100 100

GFSNE_prec_cloud_141.txt.gz
Cloud_Cover
100 100 100 100 100 100 100 100 100 100 100 100 100 100 100 100 100 100 98 30 100 100 100 100 81 25 5 24 100 97 100 56 38 68 100 99 100 100
100 100 100 100 100 100 100 100 100 100 100 100 100 100 100 100 100 100 100 15 100 100 100 100 100 100 57 19 75 31 42 70 81 100 58 88 93 96
100 100 100 100 100 100 100 100 100 100 100 100 100 100 100 100 100 100 98 100 88 100 100 100 100 100 100 100 100 90 19 25 5 35 79 95 100 100
100 100 100 100 100 100 100 100 100 100 100 100 100 100 100 100 100 100 100 100 98 83 100 100 100 100 100 100 100 100 100 100 64 38 100 99 100 100
100 100 100 100 100 100 100 100 100 100 100 100 100 100 100 100 100 90 100 100 100 100 100 100 100 100 100 100 100 100 100 100 100 100 85 92 95 100
100 100 100 100 100 100 100 100 100 100 100 100 100 100 100 100 100 100 100 100 100 99 95 96 98 100 100 100 100 100 100 100 100 100 100 100 100 91
100 100 100 100 100 100 100 100 100 100 100 100 100 100 100 100 100 100 100 100 100 100 100 100 100 100 100 100 100 100 100 100 100 100 100 100 100 100
100 100 100 100 100 100 100 100 100 100 100 100 100 100 100 100 100 100 100 100 100 100 100 100 100 100 100 100 100 100 100 100 100 100 100 100 100 100
100 100 100 100 100 100 100 100 100 100 100 100 100 100 100 100 100 100 100 100 100 100 100 100 100 100 100 100 100 100 100 100 100 100 100 100 100 100
100 100 100 100 100 100 100 100 100 100 100 100 100 100 100 100 100 100 100 100 100 100 100 100 100 100 100 100 95 74 93 100 100 100 100 100 100 100
100 100 100 100 100 100 100 100 100 100 100 100 100 100 100 100 100 100 100 100 100 100 100 100 100 100 100 100 100 100 100 100 100 100 100 100 100 100
100 100 100 100 100 100 100 100 100 100 100 100 100 100 100 100 100 100 100 100 100 100 100 100 100 100 100 100 99 100 97 100 97 100 100 98 75 99
100 100 100 100 100 100 100 100 100 100 100 100 100 100 100 100 100 100 100 100 100 100 100 100 100 100 100 100 96 98 95 88 77 92 100 96 100 94
78 100 100 100 100 100 100 100 100 100 100 100 100 100 100 100 100 100 100 100 100 100 100 100 100 100 100 100 100 100 100 99 100 100 100 100 88 79
100 100 100 100 100 100 100 100 100 100 100 100 100 100 100 100 100 100 100 100 100 100 100 100 100 100 100 100 100 100 100 100 100 100 100 100 100 100
100 100 100 100 100 100 100 100 100 100 100 100 100 100 100 100 100 100 100 100 100 100 100 100 100 100 100 100 100 100 100 100 96 100 100 100 100 100
100 100 100 100 100 100 100 100 100 100 100 100 100 81 100 100 100 100 100 100 100 100 100 100 100 100 100 100 100 100 100 100 100 100 100 100 100 100
100 100 100 100 100 100 100 100 100 100 100 100 100 100 99 87 100 100 100 100 100 100 100 100 96 61 73 100 97 100 100 100 100 100 100 100 100 100
100 100 100 100 100 100 100 100 100 98 92 95 100 100 96 98 100 100 100 100 100 100 100 100 90 100 100 100 100 100 100 100 100 100 100 100 100 100
95 100 100 95 89 89 98 100 100 100 48 60 22 94 94 100 100 100 100 100 100 100 87 44 97 100 100 100 100 100 100 100 100 100 100 100 94 100
100 100 100 100 100 100 100 100 100 100 100 100 97 83 100 100 100 100 100 100 100 100 100 82 44 24 100 100 100 100 100 73 98 100 99 100 100 100
100 100 100 100 100 99 100 100 100 100 100 100 100 100 100 100 100 100 100 100 100 100 100 88 7 100 100 100 100 100 100 100 96 100 100 100 100 100
100 100 100 100 100 100 100 100 100 100 100 100 100 100 100 100 100 100 100 100 100 100 100 100 39 99 100 100 100 100 100 100 100 100 100 100 100 100